Torna al catalogo

STARLINK-1273

AttivoComunicazioniVLEO
NORAD 45367·PAYLOAD·🇺🇸 United States

Lanciato Mar 18, 2020 da Cape Canaveral Space Force Station

Loading…

Prossimi Passaggi (prossime 24 ore)

TLE

AggiornatoSource: CelesTrak SupGP

Epoca: Sep 15, 2026, 01:20 UTC

1 45367C 20019H   26258.05604167  .00084102  00000+0  72236-3 0  2584
2 45367  53.0377 315.6801 0002284  28.2338 154.6544 15.68649017    15

Traccia STARLINK-1273 in tempo reale con AllMySat

Download on the App Store